Location: Chuathbaluk
(61.5726°N, 159.2454°W)
Time: 17:09:47
(UTC+00:00)

NOAA 15 - Pass Details

Date: 26 January 2021
Orbit: 798 x 812 km, 98.7° (Epoch: 05 March)

Event Time Altitude Azimuth Distance (km) Brightness Sun altitude
Rises 17:19:18 0° 20° (NNE) 3,346 7.9 -12.8°
Reaches altitude 10° 17:22:03 10° 33° (NNE) 2,411 7.3 -12.5°
Maximum altitude 17:26:27 26° 89° (E) 1,572 7.0 -12.0°
Drops below altitude 10° 17:30:50 10° 145° (SE) 2,402 7.9 -11.5°
Sets 17:33:34 0° 158° (SSE) 3,329 8.4 -11.1°
